User: anonymous   Login
Location: Rancho Del Sol Observatory
(38.7214°N, 120.6350°W)
Time: 03:14:18
(UTC-08:00)
Language:

Cosmos 2221 Rocket - Orbit

View from above orbital plane
View from above orbital plane
View from above satellite
View from above satellite

Ground track
Ground track

The orbit data is extracted from the following two-line orbital elements,

1 22237U 92080B   15062.28649153  .00000572  00000-0  75707-4 0  9991
2 22237 082.5147 176.1262 0021087 063.9826 325.7581 14.78074822199803
Epoch (UTC): 03 March 2015 06:52:32
Eccentricity: 0.0021087
inclination: 82.5147°
perigee height: 620 km
apogee height: 650 km
right ascension of ascending node: 176.1262°
argument of perigee: 63.9826°
revolutions per day: 14.78074822
mean anomaly at epoch: 325.7581°
orbit number at epoch: 19980

The dashed part of the orbit path shows where the satellite is in the earth's shadow,  

DLR